Simultaneous Nadir Overpasses (SNOs) Predictions

Prediction of SNOs between LANDSAT-8 and METOP-B Satellite Orbit:

Table of predicted SNOs for the next 14.0 days since TLE Epoch: 2/28/2014
Index Date (LANDSAT-8) Time (LANDSAT-8) Lat,Lon (LANDSAT-8) SZA (LANDSAT-8 ) Date (METOP-B) Time (METOP-B) Lat,Lon (METOP-B) SZA (METOP-B ) Distance(km) Time Diff (sec)
1 02/28/2014 18:45:45 81.10, -62.30 90.52 02/28/2014 18:46:00 81.10, -62.19 90.54 1.95 15
2 03/03/2014 13:30:30 -81.07,-163.88 90.59 03/03/2014 13:29:44 -81.07,-163.97 90.62 1.59 46
3 03/03/2014 14:19:55 81.10, 4.16 89.46 03/03/2014 14:20:23 81.10, 4.23 89.48 1.32 28
4 03/06/2014 09:04:40 -81.09, -97.22 91.63 03/06/2014 09:04:07 -81.08, -97.20 91.64 0.61 33
5 03/06/2014 09:54:05 81.11, 70.79 88.42 03/06/2014 09:54:46 81.11, 70.95 88.45 2.87 41
6
